User: anonymous   Login
Location: La Tine
(46.4708°N, 7.0525°E)
Time: 11:56:11
(UTC+00:00)
Language:

Cosmos 1072 Rocket - Orbit

View from above orbital plane
View from above orbital plane
View from above satellite
View from above satellite

Ground track
Ground track

The orbit data is extracted from the following two-line orbital elements,

1 11239U 79003B   20330.21632418  .00000039  00000-0  24456-4 0  9997
2 11239  82.9405 235.4886 0041815 120.4220 347.8916 13.75842668100708
Epoch (UTC): 25 November 2020 05:11:30
Eccentricity: 0.0041815
inclination: 82.9405°
perigee height: 948 km
apogee height: 1009 km
right ascension of ascending node: 235.4886°
argument of perigee: 120.4220°
revolutions per day: 13.75842668
mean anomaly at epoch: 347.8916°
orbit number at epoch: 10070

The dashed part of the orbit path shows where the satellite is in the earth's shadow,  

DLR